Regional Weather Roundup
Issued by NWS Upton, NY

Current Version | Previous Version | Text Only | Print | Product List | Glossary On
Versions: 1 2 3 4 5 6 7 8 9 10 11 12 13 14 15 16 17 18 19 20 21 22 23 24 25 26 27 28
000
ASUS41 KOKX 201305
RWROKX

Regional Weather Roundup
National Weather Service New York NY
900 AM EDT FRI APR 20 2018

Note: "FAIR" indicates few or no clouds below 12,000 feet with no
significant weather and/or obstructions to visibility.

NYZ071-072-176-178-NJZ106-104-201400-
New York City Metro Area

CITY           SKY/WX    TMP DP  RH WIND       PRES   REMARKS
Central Park   FAIR      39  21  48 NW15G28   30.16R WCI  31
Bronx Bot Gard   N/A     39  21  48 W14       30.16  WCI  31
Bronx Lehman C   N/A     37  23  56 NW17        N/A  WCI  28
LaGuardia Arpt FAIR      40  23  50 NW22G31   30.14R WCI  30
Queens College   N/A     37  23  56 NW22G33     N/A  WCI  27
Kennedy Intl   FAIR      40  23  50 NW23G32   30.15R WCI  30
Breezy Point     N/A     37 N/A N/A NW20G29     N/A  WCI  27
Brooklyn Coll    N/A     39  21  48 W18         N/A  WCI  30
Staten Island    N/A     37  21  52 NW17        N/A  WCI  28
Newark/Liberty FAIR      42  22  44 NW22      30.15S
Teterboro      FAIR      40  23  50 NW20G30   30.15R WCI  30
$$

NYZ177-179-078>081-201400-
Long Island New York

CITY           SKY/WX    TMP DP  RH WIND       PRES   REMARKS
Jones Beach      N/A     39 N/A N/A NW18G25     N/A  WCI  30
Wantagh          N/A     39  23  52 NW14        N/A  WCI  31
Hempstead        N/A     39  25  56 NW10      30.15  WCI  32
Matinecock Pt    N/A     41 N/A N/A NW26G32     N/A
Farmingdale    FAIR      40  21  46 NW15G26   30.12R WCI  32
MacArthur/ISP  FAIR      41  23  48 NW21G30   30.10R
Stony Brook      N/A     39  25  56 N12         N/A  WCI  32
Shirley        FAIR      40  25  55 NW15G30   30.10R WCI  32
Mt Sinai Harb    N/A     39 N/A N/A NW9G16      N/A  WCI  33
Westhampton    FAIR      40  23  50 NW23G30   30.09S WCI  30
East Hampton   FAIR      38  24  57 NW13G23   30.07S WCI  30
Southold         N/A     39  27  60 NW17        N/A  WCI  30
Montauk          N/A     41  26  55 NW13G22   30.06R
$$

NYZ052-065-067-201400-
Hudson Valley

CITY           SKY/WX    TMP DP  RH WIND       PRES   REMARKS
White Plains   FAIR      38  21  50 NW22G32   30.09R WCI  27
Larchmont Harb   N/A     37 N/A N/A NW20G28     N/A  WCI  27
Croton On Huds   N/A     41 N/A N/A W17G24      N/A
Somers           N/A     36  23  60 NW12        N/A  WCI  27
Brewster         N/A     36  23  60 N14         N/A  WCI  27
Newburgh       MOSUNNY   39  23  52 NW16G24   30.14R WCI  30
Montgomery     FAIR      38  22  52 NW15G23   30.14R WCI  29
Otisville        N/A     34  23  64 NW6         N/A  WCI  29
Warwick          N/A     36  25  64 NW14        N/A  WCI  27
Suffern          N/A     36  23  60 NW13        N/A  WCI  27
Poughkeepsie   FAIR      39  21  48 W13G20    30.13R WCI  31
Albany         CLOUDY    36  22  56 W16G23    30.14R WCI  26
$$

NJZ001-105-106-008-010-013-015-019>022-104-201400-
New Jersey

CITY           SKY/WX    TMP DP  RH WIND       PRES   REMARKS
Newark/Liberty FAIR      42  22  44 NW22      30.15S
Teterboro      FAIR      40  23  50 NW20G30   30.15R WCI  30
Caldwell       FAIR      38  21  50 NW18G28   30.16R WCI  28
Somerville     PTSUNNY   40  23  50 NW16G25   30.17R WCI  31
Linden         FAIR      40  20  44 N12G22    30.17R WCI  34
Perth Amboy      N/A     37 N/A N/A NW23G31     N/A  WCI  26
Sussex         CLOUDY    36  21  54 N13G23    30.17R WCI  27
Andover          N/A     35  20  54 N5        30.17R WCI  31
Trenton        FAIR      39  21  48 NW15G28   30.18S WCI  31
Millville      FAIR      42  22  44 NW14G30   30.22S
Atlantic City  FAIR      41  22  46 NW20G31   30.19F
Wrightstown    CLOUDY    40  21  46 NW16G24   30.16  WCI  31
Toms River     PTSUNNY   40  22  48 NW21G28   30.18S WCI  30
Belmar         PTSUNNY   40  21  46 NW23G32   30.16S WCI  30
$$

PAZ047>061-062-071-201400-
Eastern Pennsylvania

CITY           SKY/WX    TMP DP  RH WIND       PRES   REMARKS
Philadelphia   FAIR      40  21  46 N22G29    30.23S WCI  30
Allentown      FAIR      39  21  48 N17G25    30.20R WCI  30
Scranton       FAIR      34  22  61 N20G26    30.20R WCI  23
$$

CTZ002-004>006-009-010-012-RIZ004-006-007-MAZ004-011-015-201400-
Southern New England

 In CT

CITY           SKY/WX    TMP DP  RH WIND       PRES   REMARKS
Bradley Intl   FAIR      40  23  50 NW20G26   30.07R WCI  30
Hartford       FAIR      40  24  53 NW13G22   30.08R WCI  32
Danbury        FAIR      37  22  54 NW9G23    30.11R WCI  30
Wtrbury/Oxford FAIR      35  22  58 NW15G26   30.08R WCI  25
Norwalk Harbor   N/A     37 N/A N/A NW23G29     N/A  WCI  26
Bridgeport     FAIR      41  23  48 NW18G31   30.09S
Meriden        FAIR      39  22  50 NW15G25   30.08R WCI  31
New Haven      FAIR      40  22  48 NW18G26   30.08R WCI  31
Chester        FAIR      39  21  48 NW17G28   30.04S WCI  30
Groton         FAIR      41  25  53 NW17G28   30.03S
Willimantic    FAIR      39  24  55 NW14G24   30.05R WCI  31

 In RI

CITY           SKY/WX    TMP DP  RH WIND       PRES   REMARKS
Providence     PTSUNNY   40  27  59 NW16G28   30.01R WCI  31
Block Island   FAIR      40  27  59 NW13G23   30.04R WCI  32
Westerly       FAIR      41  26  55 NW12G25   30.03R

In MA

CITY           SKY/WX    TMP DP  RH WIND       PRES   REMARKS
Boston         PTSUNNY   41  26  55 NW21G31   29.97R
Worcester      FAIR      35  23  61 NW23G32   29.97R WCI  23
Westfield      FAIR      38  24  57 NW22G29   30.05R WCI  27
Provincetown   FAIR      41  30  65 NW18G26   29.96R
Nantucket      FAIR      41  31  67 NW22G28   29.97R
$$

ANZ330-335-338-340-345-350-353-355-201400-
Coastal Marine Observations


STATION/POSITION TIME  SKY/WX   TEMP    WIND        PRES    VSBY  WAVE
                                AIR SEA DIR/SP/G                  HT/PER
                 (UTC)          (F)     (DEG/KT/KT) (MB)    (MI)  (FT/S)
NY Harb Entrance 1250            39     320/ 21/ 27 1020.8          4/ 4
20 S Fire Island 1150            39 42  320/ 23/ 29 1019.2          5/ 6
23 SSW Montauk P 1150            38 42  300/ 21/ 25 1017.5          5/ 6
15 E Barnegat Li 1230               44                N/A           5/ 4
Hudson Canyon    1150            40 44  310/ 23/ 29 1018.6          8/ 7
Kings Point      1230            38 43  360/ 15/ 20 1021.4
Execution Rocks  NOT AVBL
Western LI Sound NOT AVBL
Central LI Sound 1215            38     300/ 19/ 25   N/A           3
Robbins Reef     1242            39     330/ 22/ 30 1021.3
$$


>>>>>>>>>>>>>>>>>>>>>>>>>>>> KEY <<<<<<<<<<<<<<<<<<<<<<<<<<<
>                                                          <
>     SKY/WX - Sky Condition/Present Weather               <
>     TMP    - Temperature in Fahrenheit                   <
>     DP     - Dew Point in Fahrenheit                     <
>     RH     - Relative Humidity in Percent                <
>     WIND   - Direction (from) and Speed in MPH           <
>     PRES   - Mean Sea Level Pressure (inches of Hg)      <
>     WCI    - Wind Chill Index                            <
>     VSB    - Visibility in Miles                         <
>     HX     - Heat Index                                  <
>     TC     - Temperature in Celsius                      <
>     VRB    - Varibale Wind Direction                     <
>                                                          <
>>>>>>>>>>>>>>>>>>>>>>>>>>>> KEY <<<<<<<<<<<<<<<<<<<<<<<<<<<




USA.gov is the U.S. government's official web portal to all federal, state and local government web resources and services.